Weather History for Paducah, KY

Change the Weather History Date:

Monday, July 15, 2013

  Actual Average Record
Temperature  
Mean Temperature 79 °F 79 °F  
Max Temperature 88 °F 89 °F 103 °F (1980)
Min Temperature 70 °F 69 °F 55 °F (1990)
Degree Days  
Heating Degree Days 0 0  
Month to date heating degree days 0 0  
Since 1 June heating degree days 0 4  
Since 1 July heating degree days 0 0  
Cooling Degree Days 14 14  
Month to date cooling degree days 155 210  
Year to date cooling degree days 655 702  
Since 1 June cooling degree days 477 530  
Growing Degree Days 29 (Base 50)    
Moisture  
Dew Point 72 °F    
Average Humidity 80    
Maximum Humidity 100    
Minimum Humidity 59    
Precipitation  
Precipitation T in 0.14 in 2.88 in (1972)
Month to date precipitation 0.71 2.23  
Year to date precipitation 35.29 27.51  
Snow  
Snow 0.00 in 0.00 in - ()
Month to date snowfall 0.0 0.0  
Since 1 June snowfall 0.0 0.0  
Since 1 July snowfall 0.0 0.0  
Snow Depth 0.00 in    
Sea Level Pressure  
Sea Level Pressure 30.17 in    
Wind  
Wind Speed 6 mph (SE)    
Max Wind Speed 14 mph    
Max Gust Speed 18 mph    
Visibility 8 miles    
Events Fog , Rain    
T = Trace of Precipitation, MM = Missing Value Source: NWS Daily Summary

Daily Weather History Graph

Daily Weather History Graph

Search for Another Location

Airport:

Trip Planner

Search our weather history database for the weather conditions in past years. The results will help you decide how hot, cold, wet, or windy it might be!

Date:

Astronomy

Jul. 15, 2013 Rise Set
Actual Time 5:47 AM CDT 8:14 PM CDT
Civil Twilight 5:17 AM CDT 8:44 PM CDT
Nautical Twilight 4:40 AM CDT 9:21 PM CDT
Astronomical Twilight 3:59 AM CDT 10:02 PM CDT
Moon 12:54 PM CDT (7/15) No Moon Set
Length of Visible Light 15h 27m
Length of Day
14h 27m
Waxing Crescent, 45% of the Moon is Illuminated
Jul 15
Waxing Crescent
Jul 15
First Quarter
Jul 22
Full
Jul 29
Last Quarter
Aug 6
New

Hourly Weather History & Observations

Time (CDT) Temp. Heat Index Dew Point Humidity Pressure Visibility Wind Dir Wind Speed Gust Speed Precip Events Conditions
12:01 AM 71.6 °F - 71.6 °F 100% 30.13 in 0.2 mi Calm Calm - N/A Fog Fog
12:12 AM 71.6 °F - 69.8 °F 94% 30.13 in 0.5 mi Calm Calm - N/A Fog Fog
12:20 AM 69.8 °F - 69.8 °F 100% 30.13 in 1.2 mi ENE 3.5 mph - N/A   Partly Cloudy
12:29 AM 69.8 °F - 69.8 °F 100% 30.13 in 2.5 mi Calm Calm - N/A   Partly Cloudy
12:53 AM 72.0 °F - 71.1 °F 97% 30.12 in 2.5 mi Calm Calm - N/A   Clear
1:02 AM 71.6 °F - 71.6 °F 100% 30.13 in 3.0 mi Calm Calm - N/A   Clear
1:38 AM 71.6 °F - 71.6 °F 100% 30.13 in 1.8 mi Calm Calm - N/A   Clear
1:53 AM 71.1 °F - 70.0 °F 96% 30.12 in 1.8 mi Calm Calm - N/A   Clear
1:59 AM 71.6 °F - 71.6 °F 100% 30.13 in 3.0 mi Calm Calm - N/A   Clear
2:20 AM 71.6 °F - 69.8 °F 94% 30.13 in 2.5 mi SE 3.5 mph - N/A   Clear
2:29 AM 71.6 °F - 69.8 °F 94% 30.13 in 9.0 mi ESE 3.5 mph - N/A   Clear
2:53 AM 70.0 °F - 69.1 °F 97% 30.12 in 5.0 mi East 3.5 mph - N/A   Clear
3:53 AM 71.1 °F - 70.0 °F 96% 30.13 in 9.0 mi East 4.6 mph - N/A   Clear
4:53 AM 72.0 °F - 71.1 °F 97% 30.13 in 10.0 mi SE 3.5 mph - N/A   Clear
5:53 AM 71.1 °F - 70.0 °F 96% 30.17 in 8.0 mi SE 3.5 mph - N/A   Partly Cloudy
6:53 AM 73.9 °F - 72.0 °F 93% 30.19 in 10.0 mi ESE 4.6 mph - N/A   Partly Cloudy
7:53 AM 77.0 °F - 73.0 °F 88% 30.20 in 10.0 mi SE 8.1 mph - N/A   Clear
8:53 AM 80.1 °F 84.2 °F 73.0 °F 79% 30.20 in 10.0 mi SSE 8.1 mph - N/A   Clear
9:26 AM 80.6 °F 85.4 °F 73.4 °F 79% 30.22 in 10.0 mi SSE 9.2 mph - N/A   Mostly Cloudy
9:53 AM 82.9 °F 89.4 °F 73.9 °F 74% 30.21 in 10.0 mi SSE 8.1 mph - N/A   Mostly Cloudy
10:53 AM 84.0 °F 91.2 °F 73.9 °F 72% 30.22 in 10.0 mi SSE 9.2 mph - N/A   Mostly Cloudy
11:32 AM 82.4 °F 88.2 °F 73.4 °F 74% 30.23 in 10.0 mi SW 5.8 mph - N/A   Mostly Cloudy
11:49 AM 84.2 °F 90.9 °F 73.4 °F 70% 30.23 in 10.0 mi South 6.9 mph - N/A   Overcast
11:53 AM 84.9 °F 92.1 °F 73.9 °F 69% 30.21 in 10.0 mi SSE 8.1 mph - N/A   Mostly Cloudy
12:53 PM 82.0 °F 87.9 °F 73.9 °F 76% 30.21 in 10.0 mi SW 4.6 mph - 0.00 in Rain Light Rain
1:53 PM 86.0 °F 93.8 °F 73.9 °F 67% 30.19 in 10.0 mi South 6.9 mph - 0.00 in   Mostly Cloudy
2:53 PM 86.0 °F 93.0 °F 73.0 °F 65% 30.18 in 10.0 mi SSE 8.1 mph - 0.00 in   Overcast
3:53 PM 87.1 °F 95.4 °F 73.9 °F 65% 30.17 in 10.0 mi East 10.4 mph - N/A   Partly Cloudy
4:53 PM 84.9 °F 90.7 °F 72.0 °F 65% 30.16 in 10.0 mi East 10.4 mph - N/A   Scattered Clouds
5:53 PM 87.1 °F 93.6 °F 72.0 °F 61% 30.15 in 10.0 mi East 11.5 mph - N/A   Clear
6:53 PM 84.9 °F 90.7 °F 72.0 °F 65% 30.16 in 10.0 mi ESE 9.2 mph - N/A   Partly Cloudy
7:53 PM 82.0 °F 86.7 °F 72.0 °F 71% 30.18 in 10.0 mi ESE 4.6 mph - N/A   Clear
8:53 PM 79.0 °F - 72.0 °F 79% 30.19 in 10.0 mi Calm Calm - N/A   Clear
9:53 PM 75.9 °F - 72.0 °F 87% 30.21 in 10.0 mi ESE 5.8 mph - N/A   Clear
10:53 PM 75.9 °F - 71.1 °F 85% 30.22 in 10.0 mi SSE 3.5 mph - N/A   Clear
11:53 PM 75.0 °F - 70.0 °F 84% 30.22 in 10.0 mi SSE 3.5 mph - N/A   Clear